This demonstration page uses our WeatherBlox Daily Observations layout. Learn more.

38.89511, -77.03637

Hourly Observations for February 9, 2015

Temp ( °F °C ) Dew Point ( °F °C ) Humidity (%) Winds ( mph kmh ) Pressure ( in mb ) Visibility ( mi km ) Precip ( " mm )
12:52 am 00:52 Cloudy 44 6.7 28 -2.2 53 53 NNE 10 17 29.79 1009 10 16.0934 0 0
1:52 am 01:52 Cloudy 44 6.7 30 -1.1 58 58 NNE 10 17 29.8 1009 10 16.0934 0 0
2:52 am 02:52 Cloudy 43 6.1 32 0 65 65 NNE 10 17 29.82 1010 10 16.0934 0 0
3:52 am 03:52 Cloudy 42 5.6 32 0 68 68 NE 13 20 29.82 1010 9 14.48406 0 0
4:52 am 04:52 Cloudy with Haze 41 5 33 0.6 73 73 NE 9 15 29.83 1010 6 9.65604 0 0
5:10 am 05:10 Cloudy with Haze 39 4 34 1 81 81 NE 9 15 29.83 1010 6 9.65604 0 0
5:52 am 05:52 Cloudy 41 5 33 0.6 73 73 NE 9 15 29.85 1011 7 11.26538 0 0
6:52 am 06:52 Cloudy with Haze 40 4.4 34 1.1 79 79 ENE 7 11 29.85 1011 6 9.65604 0 0
7:04 am 07:04 Cloudy 39 4 34 1 81 81 NE 6 9 29.88 1012 7 11.26538 0 0
7:44 am 07:44 Cloudy with Haze 39 4 36 2 87 87 NE 8 13 29.88 1012 4 6.43736 0 0
7:52 am 07:52 Cloudy with Haze 40 4.4 35 1.7 83 83 ENE 9 15 29.88 1012 3 4.82802 0 0
8:16 am 08:16 Cloudy with Haze 39 4 36 2 87 87 NE 9 15 29.88 1012 2.5 4.02335 0 0
8:22 am 08:22 Cloudy with Haze 39 4 36 2 87 87 NNE 9 15 29.88 1012 2 3.21868 0 0
8:52 am 08:52 Cloudy with Mist and Fog 39 3.9 35 1.7 86 86 ENE 8 13 29.89 1012 2 3.21868 0 0
9:00 am 09:00 Cloudy with Haze 39 4 36 2 87 87 NE 9 15 29.88 1012 1.75 2.816345 0 0
9:52 am 09:52 Cloudy with Mist and Fog 39 3.9 35 1.7 86 86 NE 9 15 29.91 1013 1.75 2.816345 0 0
10:52 am 10:52 Cloudy with Light Drizzle 39 3.9 35 1.7 86 86 NE 9 15 29.91 1013 1.5 2.41401 0 0.0254
11:48 am 11:48 Cloudy with Haze 39 4 34 1 81 81 NE 8 13 29.91 1013 4 6.43736 0 0
11:52 am 11:52 Cloudy with Haze 39 3.9 34 1.1 82 82 NE 9 15 29.9 1013 4 6.43736 0 0.0254
11:58 am 11:58 Cloudy with Haze 39 4 34 1 81 81 NE 10 17 29.91 1013 4 6.43736 0 0
12:52 pm 12:52 Cloudy with Haze 38 3.3 33 0.6 83 83 NNE 13 20 29.89 1012 5 8.0467 0 0
1:52 pm 13:52 Cloudy with Haze 38 3.3 32 0 79 79 NE 12 19 29.88 1012 5 8.0467 0 0
2:52 pm 14:52 Cloudy with Haze 38 3.3 32 0 79 79 NNE 9 15 29.88 1012 6 9.65604 0 0
3:52 pm 15:52 Cloudy with Haze 37 2.8 31 -0.6 79 79 NE 10 17 29.9 1012 6 9.65604 0 0
4:52 pm 16:52 Cloudy with Light Rain 36 2.2 31 -0.6 82 82 NE 14 22 29.91 1013 6 9.65604 0 0.0254
5:52 pm 17:52 Cloudy 37 2.8 31 -0.6 79 79 ENE 12 19 29.93 1013 8 12.87472 0 0.0254
6:52 pm 18:52 Cloudy with Haze 37 2.8 31 -0.6 79 79 NE 12 19 29.94 1014 6 9.65604 0 0
7:52 pm 19:52 Cloudy with Haze 36 2.2 30 -1.1 79 79 NE 10 17 29.96 1015 6 9.65604 0 0
8:10 pm 20:10 Cloudy with Haze 36 2 30 -1 81 81 NE 12 19 29.97 1015 6 9.65604 0 0
8:52 pm 20:52 Cloudy with Haze 35 1.7 30 -1.1 82 82 NNE 10 17 29.96 1015 5 8.0467 0 0
9:29 pm 21:29 Cloudy with Light Rain 36 2 30 -1 81 81 NNE 12 19 29.97 1015 5 8.0467 0 0.0254
9:46 pm 21:46 Cloudy with Light Rain 36 2 30 -1 81 81 NNE 10 17 29.97 1015 2.5 4.02335 0.03 0.762
9:52 pm 21:52 Cloudy with Light Rain 35 1.7 30 -1.1 82 82 NE 9 15 29.97 1015 2.5 4.02335 0.04 1.016
9:55 pm 21:55 Cloudy with Light Rain 36 2 30 -1 81 81 NE 12 19 29.97 1015 2.5 4.02335 0 0.0254
10:05 pm 22:05 Cloudy with Light Rain 36 2 30 -1 81 81 NNE 10 17 29.97 1015 3 4.82802 0.01 0.254
10:09 pm 22:09 Cloudy with Light Rain 36 2 30 -1 81 81 NNE 12 19 29.97 1015 3 4.82802 0.02 0.508
10:52 pm 22:52 Cloudy with Light Drizzle 35 1.7 29 -1.7 78 78 NE 13 20 29.97 1015 5 8.0467 0.03 0.762
11:36 pm 23:36 Cloudy with Light Drizzle 36 2 28 -2 75 75 NE 13 20 29.97 1015 5 8.0467 0 0
11:48 pm 23:48 Cloudy with Light Rain 34 1 28 -2 81 81 NNE 10 17 29.97 1015 5 8.0467 0 0
11:52 pm 23:52 Cloudy with Light Rain 34 1.1 29 -1.7 82 82 NNE 13 20 29.97 1015 5 8.0467 0 0.0254

Powered by AerisWeather